Location: Biltmore Gardens
(41.6070°N, 83.4666°W)
Time: 14:07:01
(UTC+00:00)

Cosmos 1570 Rocket - Pass Details

Date: 14 July 2020
Orbit: 763 x 788 km, 74.1° (Epoch: 13 August)

Event Time Altitude Azimuth Distance (km) Brightness Sun altitude
Rises 09:19:24 0° 338° (NNW) 3,246 7.5 -9.0°
Reaches altitude 10° 09:21:46 10° 336° (NNW) 2,319 6.7 -8.6°
Maximum altitude 09:27:01 72° 253° (WSW) 815 4.0 -7.9°
Drops below altitude 10° 09:32:15 10° 170° (S) 2,319 6.2 -7.1°
Sets 09:34:38 0° 168° (SSE) 3,246 7.0 -6.7°
